Location: New Frontier Mobile Home Park
(32.8448°N, 116.9675°W)
Time: 23:10:55
(UTC+00:00)

H-2A R/B - Pass Details

Date: 14 July 2020
Orbit: 577 x 656 km, 98.5° (Epoch: 05 August)

Event Time Altitude Azimuth Distance (km) Brightness Sun altitude
Exits shadow 11:42:28 - 180° (S) 2,511 4.8 -13.0°
Reaches altitude 10° 11:43:41 10° 183° (S) 2,025 4.3 -12.8°
Maximum altitude 11:47:58 50° 259° (W) 805 2.3 -12.0°
Drops below altitude 10° 11:52:11 10° 335° (NNW) 1,993 4.8 -11.3°
Sets 11:54:24 0° 341° (NNW) 2,889 5.7 -10.9°
